Date String (YYYY-MM-DD hh:mm:ss) UTC,Instrument flags,Ambient pressure (hPa),Sample flow (lpm),Bypass flow (lpm),Sample temperature (°C),Ambient temperature (°C),ASC tube jacket temperature (°C),LED temperature (°C),Box temperature (°C),Sample RH (%),Span deviation,Mass concentration (μg/m³),Mass concentration (μg/m³),Mass concentration (μg/m³)
DateTimeUTC,F1_M11,P_M11,Q1_M11,Q2_M11,T1_M11,T2_M11,T3_M11,T4_M11,T5_M11,U1_M11,ZSPAN_M11,X2_M11,X0_M11,X1_M11
2022-12-08 15:00:00,,0823.7,5.01,0.00,21.9,20.6,00.0,30.8,23.7,09.9,0000.0,0001.18,0003.81,0000.51
2022-12-08 15:01:00,,0823.7,5.01,0.00,21.9,20.6,00.0,30.8,23.6,09.9,0000.0,0001.17,0004.25,0000.50
2022-12-08 15:02:00,,0823.7,5.00,0.00,21.9,20.6,00.0,30.8,23.6,09.9,0000.0,0001.12,0004.15,0000.49
2022-12-08 15:03:00,,0823.7,4.99,0.00,21.9,20.6,00.0,30.8,23.6,09.6,0000.0,0001.11,0004.11,0000.49
2022-12-08 15:04:00,,0823.7,4.99,0.00,21.9,20.6,00.0,30.8,23.6,09.4,0000.0,0001.10,0003.94,0000.50
2022-12-08 15:05:00,,0823.7,5.00,0.00,21.9,20.6,00.0,30.8,23.6,09.2,0000.0,0001.11,0003.99,0000.49
2022-12-08 15:06:00,,0823.7,5.01,0.00,21.9,20.6,00.0,30.8,23.7,09.2,0000.0,0001.44,0006.71,0000.51
2022-12-08 15:07:00,,0823.6,5.01,0.00,21.9,20.6,00.0,30.8,23.7,09.0,0000.0,0001.81,0009.58,0000.55
2022-12-08 15:08:00,,0823.7,4.99,0.00,21.9,20.6,00.0,30.8,23.7,09.0,0000.0,0001.91,0009.74,0000.57
2022-12-08 15:09:00,,0823.7,4.99,0.00,21.9,20.6,00.0,30.8,23.7,08.9,0000.0,0001.89,0009.69,0000.57
2022-12-08 15:10:00,,0823.7,5.00,0.00,21.9,20.6,00.0,30.8,23.7,09.1,0000.0,0001.79,0009.73,0000.57
2022-12-08 15:11:00,,0823.7,5.01,0.00,21.9,20.6,00.0,30.8,23.6,09.0,0000.0,0001.70,0009.92,0000.58
2022-12-08 15:12:00,,0823.7,5.00,0.00,21.9,20.6,00.0,30.8,23.7,08.9,0000.0,0001.65,0009.63,0000.57
2022-12-08 15:13:00,,0823.7,4.99,0.00,21.9,20.6,00.0,30.8,23.7,09.2,0000.0,0001.67,0009.81,0000.58
2022-12-08 15:14:00,,0823.7,4.99,0.00,21.9,20.6,00.0,30.8,23.7,09.0,0000.0,0001.69,0010.39,0000.59
2022-12-08 15:15:00,,0823.7,4.99,0.00,21.9,20.6,00.0,30.8,23.6,08.6,0000.0,0001.68,0011.04,0000.58
2022-12-08 15:16:00,,0823.7,5.02,0.00,21.9,20.6,00.0,30.8,23.5,08.6,0000.0,0001.68,0011.05,0000.58
2022-12-08 15:17:00,,0823.7,5.01,0.00,21.9,20.6,00.0,30.8,23.5,08.5,0000.0,0001.58,0010.62,0000.57
2022-12-08 15:18:00,,0823.7,5.00,0.00,21.9,20.6,00.0,30.8,23.6,08.6,0000.0,0001.04,0007.26,0000.53
2022-12-08 15:19:00,,0823.7,5.00,0.00,21.9,20.6,00.0,30.8,23.5,08.7,0000.0,0000.88,0006.38,0000.51
2022-12-08 15:20:00,,0823.7,4.98,0.00,21.9,20.6,00.0,30.8,23.6,08.7,0000.0,0000.83,0006.24,0000.50
2022-12-08 15:21:00,,0823.7,4.99,0.00,21.9,20.6,00.0,30.8,23.5,08.8,0000.0,0000.83,0006.29,0000.50
2022-12-08 15:22:00,,0823.8,4.99,0.00,21.9,20.5,00.0,30.8,23.5,08.6,0000.0,0000.81,0004.58,0000.50
2022-12-08 15:23:00,,0823.8,5.00,0.00,21.9,20.5,00.0,30.8,23.6,08.6,0000.0,0000.83,0004.12,0000.51
2022-12-08 15:24:00,,0823.8,5.01,0.00,21.9,20.5,00.0,30.8,23.5,08.7,0000.0,0000.83,0004.05,0000.51
2022-12-08 15:25:00,,0823.7,5.00,0.00,21.9,20.5,00.0,30.8,23.4,08.8,0000.0,0000.82,0003.12,0000.51
2022-12-08 15:26:00,,0823.7,5.00,0.00,21.8,20.5,00.0,30.8,23.4,09.0,0000.0,0000.81,0001.62,0000.52
2022-12-08 15:27:00,,0823.9,5.00,0.00,21.8,20.5,00.0,30.8,23.5,09.1,0000.0,0000.87,0001.75,0000.54
2022-12-08 15:28:00,,0824.0,5.00,0.00,21.9,20.5,00.0,30.8,23.6,09.0,0000.0,0000.88,0001.73,0000.54
2022-12-08 15:29:00,,0824.0,5.00,0.00,21.8,20.5,00.0,30.8,23.6,08.9,0000.0,0000.91,0001.84,0000.54
2022-12-08 15:30:00,,0823.8,4.99,0.00,21.8,20.5,00.0,30.8,23.6,09.0,0000.0,0000.94,0002.34,0000.56
2022-12-08 15:31:00,,0823.8,4.99,0.00,21.8,20.4,00.0,30.8,23.6,09.0,0000.0,0000.96,0002.71,0000.56
2022-12-08 15:32:00,,0823.8,4.99,0.00,21.8,20.3,00.0,30.7,23.5,09.2,0000.0,0000.94,0002.59,0000.55
2022-12-08 15:33:00,,0823.8,5.00,0.00,21.7,20.2,00.0,30.7,23.4,09.2,0000.0,0000.93,0002.59,0000.55
2022-12-08 15:34:00,,0823.8,5.00,0.00,21.7,20.2,00.0,30.7,23.4,09.5,0000.0,0000.91,0002.52,0000.55
2022-12-08 15:35:00,,0823.9,5.01,0.00,21.7,21.2,00.0,30.7,23.6,09.5,0000.0,0000.90,0002.82,0000.56
2022-12-08 15:36:00,,0823.9,5.01,0.00,21.9,22.3,00.0,30.7,23.9,09.5,0000.0,0000.91,0003.05,0000.56
2022-12-08 15:37:00,,0824.0,5.01,0.00,22.0,22.4,00.0,30.7,24.0,09.5,0000.0,0000.93,0003.11,0000.56
2022-12-08 15:38:00,,0823.9,5.00,0.00,22.0,22.0,00.0,30.8,24.0,09.3,0000.0,0000.89,0003.00,0000.55
2022-12-08 15:39:00,,0823.7,4.99,0.00,22.0,21.7,00.0,30.8,23.9,09.3,0000.0,0000.91,0003.14,0000.56
2022-12-08 15:40:00,,0823.9,5.00,0.00,22.0,21.4,00.0,30.8,23.8,09.4,0000.0,0000.92,0003.19,0000.57
2022-12-08 15:41:00,,0824.0,5.00,0.00,22.0,21.2,00.0,30.8,23.8,09.0,0000.0,0000.93,0002.87,0000.57
2022-12-08 15:42:00,,0823.9,5.00,0.00,22.0,21.1,00.0,30.8,23.8,09.0,0000.0,0000.93,0002.42,0000.59
2022-12-08 15:43:00,,0823.9,5.00,0.00,22.0,21.0,00.0,30.9,23.8,08.9,0000.0,0000.95,0002.43,0000.60
2022-12-08 15:44:00,,0823.9,5.00,0.00,22.0,21.0,00.0,30.9,23.7,09.0,0000.0,0000.96,0002.45,0000.61
2022-12-08 15:45:00,,0823.9,5.00,0.00,22.0,20.9,00.0,30.9,23.7,08.8,0000.0,0001.01,0002.57,0000.63
2022-12-08 15:46:00,,0823.8,5.01,0.00,22.0,20.8,00.0,30.9,23.7,08.7,0000.0,0001.07,0002.40,0000.64
2022-12-08 15:47:00,,0824.0,5.00,0.00,21.9,20.7,00.0,30.9,23.6,08.6,0000.0,0001.12,0002.21,0000.66
2022-12-08 15:48:00,,0824.1,4.99,0.00,21.9,20.7,00.0,30.9,23.5,08.6,0000.0,0001.12,0002.21,0000.68
2022-12-08 15:49:00,,0824.1,4.99,0.00,21.9,20.6,00.0,30.9,23.4,08.6,0000.0,0001.18,0002.28,0000.69
2022-12-08 15:50:00,,0824.0,4.99,0.00,21.9,20.6,00.0,30.8,23.4,08.7,0000.0,0001.15,0002.12,0000.70
2022-12-08 15:51:00,,0824.0,5.01,0.00,21.9,20.5,00.0,30.8,23.4,08.5,0000.0,0001.12,0001.93,0000.71
2022-12-08 15:52:00,,0823.9,5.01,0.00,21.9,20.5,00.0,30.8,23.5,08.4,0000.0,0001.15,0001.91,0000.72
2022-12-08 15:53:00,,0824.0,4.99,0.00,21.9,20.5,00.0,30.8,23.5,08.4,0000.0,0001.20,0002.07,0000.74
2022-12-08 15:54:00,,0824.1,4.99,0.00,21.9,20.5,00.0,30.8,23.5,08.6,0000.0,0001.22,0002.14,0000.74
2022-12-08 15:55:00,,0824.1,4.99,0.00,21.9,20.5,00.0,30.8,23.5,08.3,0000.0,0001.23,0002.17,0000.75
2022-12-08 15:56:00,,0824.1,5.01,0.00,21.9,20.5,00.0,30.8,23.4,08.5,0000.0,0001.24,0002.20,0000.76
2022-12-08 15:57:00,,0824.1,5.01,0.00,21.8,20.5,00.0,30.8,23.4,08.5,0000.0,0001.21,0002.32,0000.75
2022-12-08 15:58:00,,0824.1,5.00,0.00,21.8,20.4,00.0,30.8,23.4,08.1,0000.0,0001.23,0003.35,0000.76
2022-12-08 15:59:00,,0824.1,5.01,0.00,21.8,20.4,00.0,30.8,23.3,07.7,0000.0,0001.24,0003.41,0000.76
